Van Nuys, CA

2:44 PM PDT on July 27, 2017 (GMT -0700)
Van Nuys

Weather History for KVNY - October, 2012

Change the Weather History Date:

Sunday, October 21, 2012

  Actual Average Record
Temperature  
Mean Temperature 66 °F -  
Max Temperature 73 °F 77 °F 100 °F (2003)
Min Temperature 61 °F 53 °F 46 °F (2004)
Cooling Degree Days 2    
Growing Degree Days 16 (Base 50)    
Moisture  
Dew Point 56 °F    
Average Humidity 74    
Maximum Humidity 86    
Minimum Humidity 53    
Precipitation  
Precipitation 0.00 in - - ()
Sea Level Pressure  
Sea Level Pressure 29.87 in    
Wind  
Wind Speed 5 mph (SSE)    
Max Wind Speed 13 mph    
Max Gust Speed -    
Visibility 10 miles    
Events Rain    
Averages and records for this station are not official NWS values.
T = Trace of Precipitation, MM = Missing Value Source: NWS Daily Summary

Daily Weather History Graph

Daily Weather History Graph

Search for Another Location

Airport or City:

Trip Planner

Search our weather history database for the weather conditions in past years. The results will help you decide how hot, cold, wet, or windy it might be!

Date:

Astronomy

Oct. 21, 2012 Rise Set
Actual Time 7:04 AM PDT 6:11 PM PDT
Civil Twilight 6:39 AM PDT 6:37 PM PDT
Nautical Twilight 6:09 AM PDT 7:06 PM PDT
Astronomical Twilight 5:40 AM PDT 7:35 PM PDT
Moon 1:23 PM PDT (10/21) No Moon Set
Length of Visible Light 11h 58m
Length of Day
11h 07m
Waxing Crescent, 46% of the Moon is Illuminated
Oct 21
Waxing Crescent
Oct 21
First Quarter
Oct 29
Full
Nov 6
Last Quarter
Nov 13
New

Hourly Weather History & Observations

Time (PDT) Temp. Dew Point Humidity Pressure Visibility Wind Dir Wind Speed Gust Speed Precip Events Conditions
12:51 AM 63.0 °F 57.0 °F 81% 29.86 in 10.0 mi SSE 6.9 mph - N/A   Overcast
1:51 AM 63.0 °F 57.0 °F 81% 29.86 in 10.0 mi SSE 6.9 mph - N/A   Overcast
3:26 AM 62.6 °F 57.2 °F 82% 29.87 in 10.0 mi South 3.5 mph - N/A   Overcast
3:51 AM 62.1 °F 57.0 °F 84% 29.85 in 10.0 mi SSE 3.5 mph - N/A   Overcast
4:03 AM 62.6 °F 57.2 °F 82% 29.86 in 10.0 mi Calm Calm - N/A   Overcast
4:51 AM 62.1 °F 57.9 °F 86% 29.84 in 10.0 mi SE 5.8 mph - N/A   Overcast
5:19 AM 62.6 °F 57.2 °F 82% 29.86 in 10.0 mi Calm Calm - N/A   Mostly Cloudy
6:51 AM 63.0 °F 57.0 °F 81% 29.86 in 10.0 mi SE 4.6 mph - N/A   Overcast
7:51 AM 63.0 °F 57.0 °F 81% 29.88 in 10.0 mi Calm Calm - N/A   Overcast
8:51 AM 63.0 °F 57.0 °F 81% 29.90 in 9.0 mi Calm Calm - 0.00 in Rain Light Rain
9:51 AM 64.9 °F 57.9 °F 78% 29.90 in 10.0 mi Calm Calm - 0.00 in   Mostly Cloudy
10:51 AM 66.9 °F 55.9 °F 68% 29.89 in 10.0 mi SSE 3.5 mph - N/A   Mostly Cloudy
11:51 AM 70.0 °F 55.9 °F 61% 29.89 in 10.0 mi South 10.4 mph - N/A   Mostly Cloudy
12:51 PM 72.0 °F 54.0 °F 53% 29.87 in 10.0 mi South 8.1 mph - N/A   Scattered Clouds
1:51 PM 70.0 °F 55.0 °F 59% 29.84 in 10.0 mi South 11.5 mph - N/A   Mostly Cloudy
2:51 PM 71.1 °F 55.9 °F 59% 29.83 in 10.0 mi South 12.7 mph - N/A   Mostly Cloudy
4:51 PM 70.0 °F 55.0 °F 59% 29.84 in 10.0 mi South 10.4 mph - N/A   Mostly Cloudy
5:51 PM 66.9 °F 53.1 °F 61% 29.84 in 10.0 mi South 8.1 mph - N/A   Mostly Cloudy
6:51 PM 66.0 °F 55.0 °F 68% 29.86 in 10.0 mi SE 4.6 mph - N/A   Mostly Cloudy
8:51 PM 62.1 °F 55.9 °F 80% 29.88 in 10.0 mi ESE 5.8 mph - N/A   Scattered Clouds
9:51 PM 61.0 °F 55.0 °F 81% 29.90 in 10.0 mi South 4.6 mph - N/A   Mostly Cloudy
10:51 PM 62.1 °F 55.9 °F 80% 29.91 in 10.0 mi Calm Calm - N/A   Mostly Cloudy
11:51 PM 62.1 °F 55.0 °F 78% 29.90 in 10.0 mi Calm Calm - N/A   Overcast